"Pseudo-MPEC" for P22mZMm

Created 2026 May 7 1:35:06 UT using Find_Orb

Click here for an explanation of pseudo-MPECs

 
 Astrometry: 
     P22mZMm 0C2026 04 17.42513413 13 20.072-19 13 59.48   ~56G5 21.37wXNEOCPF52
     P22mZMm 0C2026 04 17.43608013 13 19.391-19 14 14.87   ~56G5 21.29wXNEOCPF52
     P22mZMm 0C2026 04 17.44704413 13 18.697-19 14 30.30   ~56G5 21.40wXNEOCPF52
     P22mZMm*0C2026 05 06.31758412 59 14.658-26 51 49.37   ~569K 21.06wXNEOCPF52
     P22mZMm 0C2026 05 06.32829912 59 14.250-26 52 04.78   ~569K 21.77wXNEOCPF52
     P22mZMm 0C2026 05 06.34928612 59 13.442-26 52 35.12   ~569K 21.22wXNEOCPF52
     P22mZMm 0C2026 05 06.40830212 59 11.199-26 53 59.24   ~56GZ 20.47GVNEOCPF52
     P22mZMm 0C2026 05 06.40911012 59 11.173-26 54 00.33   ~56GZ 20.73GVNEOCPF52

Station data:
(F52) Pan-STARRS 2, Haleakala  (N20.707382 W156.255910)  US/Hawaii.
   Observers J. Herman, T. Lowe, P. Minguez, A. Schultz, I. Smith. Measurers
   K. Chambers, T. de Boer, J. Fairlamb, H. Gao, M. Huber, C.-C. Lin, E.
   Magnier, Y. Ramanjooloo, R. Wainscoat, R. Weryk. 1.8-m Ritchey-Chrétien +
   CCD.

Orbital elements:  P22mZMm
   Perihelion 2026 Jun 4.182460 +/- 0.29 TT =  4:22:44.5 (JD 2461195.682460)
Epoch 2026 May  6.0 TT = JDT 2461166.5   Earth MOID: 0.2931   Ma: 0.0252
M 351.971346888 +/- 0.48            (J2000 ecliptic)             AutoNEOCP
n   0.275119138 +/- 0.0188          Peri.  237.615274 +/- 0.43
a   2.341291639 +/- 0.107           Node     6.668638 +/- 0.25
e   0.45639930 +/- 0.0199           Incl.    8.311180 +/- 0.35
P   3.58248                H 22.00  G  0.15   U 10.1
q 1.272727758 +/- 0.0114    Q 3.409855520 +/- 0.202
From 8 observations 2026 Apr. 17-May 6; mean residual 0".06
Residuals in arcseconds: 
260417 F52  .04+  .07-    260506 F52  .05-  .04-    260506 F52  .04+  .05-    
260417 F52  .06+  .02+    260506 F52  .02-  .08+    260506 F52  .09+  .00     
260417 F52  .10-  .05+    260506 F52  .05-  .02+    

Ephemerides (geocentric):
Date (UTC) HH   RA             Dec           delta  r     elong  mag " sig PA
---- --------  ------------   ------------  ------ ------ -----  --- --------
2026 05 07 02  12 58 54.707   -27 09 47.27  .32686 1.3049 151.2 21.2 1.71 123
2026 05 07 03  12 58 53.695   -27 10 46.86  .32683 1.3048 151.2 21.2 1.90 119
2026 05 07 04  12 58 52.689   -27 11 46.44  .32681 1.3047 151.2 21.2 2.10 116
2026 05 07 05  12 58 51.689   -27 12 46.00  .32678 1.3047 151.1 21.2 2.31 113
2026 05 07 06  12 58 50.693   -27 13 45.55  .32676 1.3046 151.1 21.2 2.53 111
2026 05 07 07  12 58 49.703   -27 14 45.09  .32673 1.3045 151.0 21.2 2.74 109
2026 05 07 08  12 58 48.719   -27 15 44.61  .32671 1.3044 151.0 21.2 2.97 108
2026 05 07 09  12 58 47.740   -27 16 44.12  .32668 1.3043 151.0 21.2 3.19 106
2026 05 07 10  12 58 46.767   -27 17 43.61  .32666 1.3042 150.9 21.2 3.42 105
2026 05 07 11  12 58 45.799   -27 18 43.09  .32663 1.3041 150.9 21.2 3.65 104
2026 05 07 12  12 58 44.836   -27 19 42.56  .32661 1.3040 150.9 21.2 3.88 103
2026 05 07 13  12 58 43.879   -27 20 42.01  .32658 1.3039 150.8 21.2 4.11 102
2026 05 07 14  12 58 42.928   -27 21 41.45  .32656 1.3038 150.8 21.2 4.35 101
2026 05 07 15  12 58 41.982   -27 22 40.88  .32654 1.3037 150.7 21.2 4.59 101
2026 05 07 16  12 58 41.041   -27 23 40.29  .32651 1.3036 150.7 21.2 4.83 100
2026 05 07 17  12 58 40.106   -27 24 39.68  .32649 1.3035 150.7 21.2 5.07 100
2026 05 07 18  12 58 39.177   -27 25 39.07  .32647 1.3035 150.6 21.2 5.32  99
2026 05 07 19  12 58 38.253   -27 26 38.43  .32644 1.3034 150.6 21.2 5.56  99
2026 05 07 20  12 58 37.335   -27 27 37.79  .32642 1.3033 150.6 21.2 5.81  98
2026 05 07 21  12 58 36.422   -27 28 37.13  .32640 1.3032 150.5 21.2 6.06  98
2026 05 07 22  12 58 35.515   -27 29 36.45  .32638 1.3031 150.5 21.2 6.31  97
2026 05 07 23  12 58 34.614   -27 30 35.76  .32635 1.3030 150.4 21.2 6.56  97
2026 05 08 00  12 58 33.718   -27 31 35.06  .32633 1.3029 150.4 21.2 6.81  97
2026 05 08 01  12 58 32.828   -27 32 34.34  .32631 1.3028 150.4 21.2 7.07  96
2026 05 08 02  12 58 31.943   -27 33 33.61  .32629 1.3027 150.3 21.2 7.32  96
2026 05 08 03  12 58 31.065   -27 34 32.86  .32627 1.3026 150.3 21.2 7.58  96
2026 05 08 04  12 58 30.191   -27 35 32.10  .32625 1.3025 150.3 21.2 7.84  96
2026 05 08 05  12 58 29.324   -27 36 31.32  .32623 1.3025 150.2 21.2 8.10  95
2026 05 08 06  12 58 28.462   -27 37 30.53  .32620 1.3024 150.2 21.2 8.36  95
2026 05 08 07  12 58 27.606   -27 38 29.72  .32618 1.3023 150.2 21.2 8.63  95
2026 05 08 08  12 58 26.755   -27 39 28.90  .32616 1.3022 150.1 21.2 8.89  95
2026 05 08 09  12 58 25.911   -27 40 28.07  .32614 1.3021 150.1 21.2 9.16  95
2026 05 08 10  12 58 25.072   -27 41 27.21  .32612 1.3020 150.0 21.2 9.42  94
2026 05 08 11  12 58 24.239   -27 42 26.35  .32610 1.3019 150.0 21.2 9.69  94
2026 05 08 12  12 58 23.411   -27 43 25.47  .32608 1.3018 150.0 21.2 9.96  94
2026 05 08 13  12 58 22.589   -27 44 24.57  .32606 1.3017 149.9 21.2 10.2  94
2026 05 08 14  12 58 21.773   -27 45 23.66  .32604 1.3017 149.9 21.2 10.5  94
2026 05 08 15  12 58 20.963   -27 46 22.73  .32603 1.3016 149.9 21.2 10.8  94
2026 05 08 16  12 58 20.159   -27 47 21.79  .32601 1.3015 149.8 21.2 11.1  93
2026 05 08 17  12 58 19.360   -27 48 20.84  .32599 1.3014 149.8 21.2 11.3  93
2026 05 08 18  12 58 18.568   -27 49 19.86  .32597 1.3013 149.7 21.2 11.6  93
2026 05 08 19  12 58 17.781   -27 50 18.88  .32595 1.3012 149.7 21.2 11.9  93
2026 05 08 20  12 58 17.000   -27 51 17.87  .32593 1.3011 149.7 21.2 12.2  93
2026 05 08 21  12 58 16.225   -27 52 16.85  .32591 1.3010 149.6 21.2 12.5  93
2026 05 08 22  12 58 15.455   -27 53 15.82  .32590 1.3009 149.6 21.2 12.7  93
2026 05 08 23  12 58 14.692   -27 54 14.77  .32588 1.3009 149.6 21.2 13.0  93
2026 05 09 00  12 58 13.934   -27 55 13.71  .32586 1.3008 149.5 21.2 13.3  93
2026 05 09 01  12 58 13.183   -27 56 12.63  .32584 1.3007 149.5 21.2 13.6  92